Location: Pedimozza
(42.0500°N, 9.3500°E)
Time: 14:49:58
(UTC+00:00)

USA 32 - Pass Details

Date: 19 August 2019
Orbit: 777 x 783 km, 85.0° (Epoch: 16 September)

Event Time Altitude Azimuth Distance (km) Brightness Sun altitude
Rises 20:47:08 0° 359° (N) 3,272 8.0 -24.2°
Reaches altitude 10° 20:49:33 10° 4° (N) 2,339 7.0 -24.5°
Enters shadow 20:54:28 54° 71° (ENE) 939 4.2 -25.1°
